Location: Edinburgh
(55.9500°N, 3.1600°W)
Time: 17:03:18
(UTC+00:00)

Vanguard 2 Rocket - Visible Passes

Search period start: 13 December 2017 00:00
Search period end: 23 December 2017 00:00
Orbit: 555 x 3326 km, 32.9° (Epoch: 13 December)

Date Brightness Start Highest point End Pass type
(mag) Time Alt. Az. Time Alt. Az. Time Alt. Az.
13 Dec 10.2 18:28:57 10° S 18:36:57 18° SE 18:41:38 16° ESE visible
13 Dec 10.0 20:37:31 10° SW 20:47:26 29° S 20:47:26 29° S visible
13 Dec 10.5 22:49:58 10° WSW 22:53:14 17° SW 22:53:14 17° SW visible
14 Dec 10.4 17:33:55 10° SSE 17:37:41 12° SE 17:41:53 10° ESE visible
14 Dec 10.0 19:39:01 10° SSW 19:49:41 26° SSE 19:51:13 26° SSE visible
14 Dec 10.2 21:50:15 10° SW 21:57:01 26° SSW 21:57:01 26° SSW visible
15 Dec 10.1 18:41:11 10° S 18:49:55 21° SSE 18:54:59 18° SE visible
15 Dec 10.0 20:51:02 10° SW 21:00:47 30° S 21:00:47 30° S visible
15 Dec 10.6 23:04:04 10° WSW 23:06:35 15° WSW 23:06:35 15° WSW visible
16 Dec 10.2 17:44:25 10° S 17:50:33 15° SE 17:58:05 10° ESE visible
16 Dec 9.9 19:52:18 10° SW 20:02:55 28° SSE 20:04:32 28° SSE visible
16 Dec 10.2 22:04:12 10° WSW 22:10:21 24° SW 22:10:21 24° SW visible
17 Dec 10.0 18:54:08 10° SSW 19:03:04 24° SSE 19:08:18 20° SE visible
17 Dec 10.0 21:04:51 10° SW 21:14:07 29° SSW 21:14:07 29° SSW visible
17 Dec 10.7 23:18:33 10° WSW 23:19:55 13° WSW 23:19:55 13° WSW visible
18 Dec 10.0 17:56:39 10° S 18:03:36 18° SSE 18:12:05 11° ESE visible
18 Dec 9.9 20:05:57 10° SW 20:16:18 29° S 20:17:53 28° SSE visible
18 Dec 10.3 22:18:28 10° WSW 22:23:41 21° SW 22:23:41 21° SW visible
19 Dec 10.1 17:00:38 10° SSE 17:04:30 12° SE 17:09:03 10° ESE visible
19 Dec 9.9 19:07:32 10° SSW 19:16:24 25° SSE 19:21:40 21° SE visible
19 Dec 10.0 21:18:56 10° WSW 21:27:28 27° SSW 21:27:28 27° SSW visible
20 Dec 9.9 18:09:40 10° SSW 18:16:52 21° SSE 18:25:29 12° ESE visible
20 Dec 9.9 20:19:54 10° SW 20:29:47 27° S 20:31:17 27° S visible
20 Dec 10.4 22:33:08 10° WSW 22:37:05 17° SW 22:37:05 17° SW visible
21 Dec 10.0 17:12:38 10° S 17:17:41 15° SSE 17:24:05 10° ESE visible
21 Dec 9.9 19:21:18 10° SW 19:29:53 25° S 19:35:08 21° SE visible
21 Dec 10.1 21:33:23 10° WSW 21:40:56 23° SSW 21:40:56 23° SSW visible
22 Dec 9.8 18:23:10 10° SSW 18:30:19 22° SSE 18:39:00 12° SE visible
22 Dec 10.0 20:34:09 10° SW 20:43:21 25° S 20:44:49 24° S visible
22 Dec 10.6 22:48:36 10° WSW 22:50:38 13° SW 22:50:38 13° SW visible
